Location: Allison's Woods
(35.8809°N, 80.8140°W)
Time: 23:47:06
(UTC-04:00)

Iridium 39 - Visible Passes

Search period start: 18 September 2014 00:00
Search period end: 28 September 2014 00:00
Orbit: 776 x 779 km, 86.4° (Epoch: 18 September)

Date Brightness Start Highest point End Pass type
(mag) Time Alt. Az. Time Alt. Az. Time Alt. Az.
18 Sep 8.0 06:22:58 10° SSE 06:27:35 33° E 06:32:13 10° NNE visible
19 Sep 9.1 05:50:56 10° ESE 05:54:19 18° E 05:57:43 10° NE visible
21 Sep 7.1 06:22:36 10° SSE 06:27:35 50° E 06:32:36 10° NNE visible
22 Sep 8.4 05:50:01 10° SE 05:54:15 26° E 05:58:30 10° NNE visible
22 Sep 9.6 19:45:28 10° NW 19:47:36 13° WNW 19:49:43 10° WSW visible
23 Sep 9.2 05:18:33 10° ESE 05:21:02 14° E 05:23:31 10° NE visible
24 Sep 6.3 06:22:28 10° S 06:27:38 75° E 06:32:50 10° N visible
25 Sep 7.6 05:49:28 10° SSE 05:54:14 38° E 05:59:01 10° NNE visible
26 Sep 8.6 05:17:13 10° SE 05:20:56 20° E 05:24:40 10° NE visible
27 Sep 9.4 04:47:23 10° E 04:47:46 10° ENE 04:48:09 10° ENE visible
27 Sep 6.0 06:22:32 10° S 06:27:43 75° W 06:32:56 10° N visible
